Regional Weather Roundup
Issued by NWS

Home | Current Version | Previous Version | Text Only | Print | Product List | Glossary On
Versions: 1 2 3 4 5 6 7 8 9 10 11 12 13 14 15 16 17 18 19 20 21 22 23 24 25 26 27 28 29 30 31 32 33 34 35 36 37 38 39 40 41 42 43 44 45 46 47 48 49 50
000
ASUS43 KFSD 021102
RWRSD

WEATHER ROUNDUP FOR SOUTH DAKOTA
NATIONAL WEATHER SERVICE SIOUX FALLS SD
500 AM CST FRI DEC 02 2016

NOTE: "FAIR" INDICATES FEW OR NO CLOUDS BELOW 12,000 FEET WITH NO
SIGNIFICANT WEATHER AND/OR OBSTRUCTIONS TO VISIBILITY.


SDZ001>005-009-010-012>017-021200-
NORTHWEST AND NORTH CENTRAL SOUTH DAKOTA

CITY           SKY/WX    TMP DP  RH WIND       PRES   REMARKS
BUFFALO          N/A     24  22  91 S3        30.03R
FAITH            N/A     26  26 100 CALM      30.13R
MOBRIDGE       CLOUDY    27  23  85 CALM      30.14R
$$

SDZ012>016-024>037-041>051-057-063-072>074-021200-
SOUTHWEST AND SOUTH CENTRAL SOUTH DAKOTA

CITY           SKY/WX    TMP DP  RH WIND       PRES   REMARKS
RAPID CTY ARPT CLOUDY    24  19  81 CALM      30.10R
PIERRE         CLOUDY    28  26  92 N5        30.15R WCI  23
CUSTER         CLOUDY    20  16  84 CALM      30.04R
ELLSWORTH AFB  CLOUDY    25  20  82 CALM      30.09R
PHILIP         CLOUDY    19  17  92 W3        30.16R
PINE RIDGE     CLEAR     10   8  92 NE3       30.12R
SPEARFISH      FAIR      27  21  80 W3        30.08R
WINNER         CLOUDY    29  26  89 W5        30.17R WCI  24
$$

SDZ004>011-016>023-039-040-021200-
NORTHEAST SOUTH DAKOTA

CITY           SKY/WX    TMP DP  RH WIND       PRES   REMARKS
ABERDEEN       CLOUDY    28  22  78 N8        30.18R WCI  20
WATERTOWN      CLOUDY    27  23  85 N8        30.14R WCI  19
SISSETON         N/A     28  21  75 N8        30.17R WCI  20
$$

SDZ017-020-022-023-036>040-048>070-021200-
SOUTHEAST SOUTH DAKOTA

CITY           SKY/WX    TMP DP  RH WIND       PRES   REMARKS
SIOUX FALLS    CLOUDY    32  32 100 N5        30.15R WCI  27
HURON          CLOUDY    29  28  96 CALM      30.18R
CHAMBERLAIN    CLOUDY    31  30  98 W3        30.17R
MITCHELL       CLOUDY    31  31 100 N8        30.18R WCI  23
YANKTON        CLOUDY    32  28  86 W6        30.17S WCI  26
$$

ABBREVIATIONS USED IN REMARKS
   TC - TEMPERATURE IN CELSIUS
  WCI - WIND CHILL INDEX
   HX - HEAT INDEX
  VSB - VISIBILITY




USA.gov is the U.S. government's official web portal to all federal, state and local government web resources and services.